This demonstration page uses our WeatherBlox Daily Observations layout. Learn more.

Left ArrowRight Arrow

47.50024, -111.30081

Hourly Observations for June 17, 2020

Temp ( °F °C ) Dew Point ( °F °C ) Humidity (%) Winds ( mph kmh ) Pressure ( in mb ) Visibility ( mi km ) Precip ( " mm )
12:03 am 00:03 Mostly Clear 52 11.1 42 5.6 69 69 NNW 9 15 29.84 1011 N/A 0.00 0.00
12:53 am 00:53 Cloudy 51 10.6 42 5.6 71 71 NW 10 17 29.88 1012 10 16 0.00 0.00
1:53 am 01:53 Cloudy 51 10.6 43 6.1 74 74 NNW 13 20 29.90 1013 10 16 0.00 0.00
2:53 am 02:53 Cloudy 52 11.1 44 6.7 75 75 NNW 9 15 29.91 1013 10 16 0.00 0.00
3:20 am 03:20 Cloudy 51 10.6 44 6.7 77 77 NNW 5 7 29.87 1011 10 16 0.00 0.00
3:28 am 03:28 Cloudy 51 10.6 44 6.7 77 77 NW 6 9 29.87 1011 10 16 0.00 0.00
3:53 am 03:53 Cloudy 51 10.6 44 6.7 77 77 NW 9 15 29.91 1013 10 16 0.00 0.00
4:50 am 04:50 Cloudy 50 10 45 7 82 82 NNW 9 15 29.88 1012 10 16 0.00 0.00
4:53 am 04:53 Cloudy 50 10 44 6.7 80 80 NNW 10 17 29.91 1013 10 16 0.00 0.00
5:09 am 05:09 Cloudy 50 10 44 6.7 80 80 NNW 12 19 29.89 1012 10 16 0.00 0.00
5:40 am 05:40 Cloudy 50 10 44 6.7 80 80 NNW 7 11 29.90 1012 10 16 0.00 0.00
5:53 am 05:53 Cloudy 50 10 44 6.7 80 80 NNW 8 13 29.92 1013 10 16 0.00 0.00
6:33 am 06:33 Cloudy with Light Rain 49 9.4 45 7.2 86 86 NNW 9 15 29.91 1013 10 16 0.01 0.25
6:50 am 06:50 Cloudy with Light Rain 48 9 46 8 94 94 N 13 20 29.92 1013 10 16 0.02 0.51
6:53 am 06:53 Cloudy with Light Rain 49 9.4 46 7.8 90 90 N 15 24 29.93 1014 10 16 0.02 0.51
7:01 am 07:01 Cloudy with Light Rain 49 9.4 46 7.8 90 90 N 13 20 29.92 1013 8 13 0.00 0.00
7:53 am 07:53 Cloudy with Light Rain 49 9.4 46 7.8 90 90 N 9 15 29.95 1014 10 16 0.02 0.51
8:53 am 08:53 Cloudy with Light Rain 51 10.6 47 8.3 86 86 N 8 13 29.98 1015 10 16 0.01 0.25
9:29 am 09:29 Cloudy with Light Rain 51 10.6 47 8.3 86 86 N 7 11 29.95 1014 10 16 0.01 0.25
9:45 am 09:45 Cloudy with Light Rain 50 10 47 8.3 89 89 NNW 12 19 29.96 1014 7 11 0.02 0.51
9:53 am 09:53 Cloudy with Light Rain 50 10 47 8.3 89 89 NNW 9 15 29.99 1016 6 10 0.03 0.76
10:04 am 10:04 Cloudy with Light Rain 50 10 47 8.3 89 89 NW 12 19 29.96 1014 6 10 0.01 0.25
10:53 am 10:53 Cloudy with Light Rain 50 10 46 7.8 86 86 N 15 24 30.00 1016 6 10 0.07 1.78
11:53 am 11:53 Cloudy with Light Rain 51 10.6 47 8.3 86 86 NW 8 13 30.00 1016 10 16 0.04 1.02
12:33 pm 12:33 Cloudy 54 12.2 49 9.4 83 83 W 8 13 29.94 1014 10 16 0.00 0.00
12:50 pm 12:50 Cloudy with Light Rain 55 13 48 9 77 77 NW 7 11 29.92 1013 10 16 0.00 0.00
12:53 pm 12:53 Cloudy with Light Rain 56 13.3 50 10 81 81 NW 10 17 29.98 1015 10 16 0.00 0.00
1:35 pm 13:35 Cloudy with Light Rain 54 12.2 49 9.4 83 83 WNW 12 19 29.93 1013 10 16 0.00 0.00
1:53 pm 13:53 Cloudy with Light Rain 54 12.2 49 9.4 83 83 WSW 6 9 29.99 1016 8 13 0.01 0.25
1:58 pm 13:58 Cloudy with Nearby Thunderstorms 54 12.2 49 9.4 83 83 VRB 6 9 29.93 1013 8 13 0.00 0.00
2:19 pm 14:19 Cloudy with Light Rain 54 12.2 48 8.9 80 80 N 12 19 29.94 1014 10 16 0.00 0.00
2:53 pm 14:53 Cloudy with Light Rain 53 11.7 47 8.3 80 80 NNW 13 20 30.00 1016 5 8 0.04 1.02
3:53 pm 15:53 Mostly Cloudy 61 16.1 48 8.9 63 63 N 12 19 30.00 1016 10 16 0.00 0.00
4:53 pm 16:53 Cloudy with Light Rain 52 11.1 46 7.8 80 80 N 8 13 30.06 1018 5 8 0.00 0.00
5:53 pm 17:53 Mostly Cloudy 58 14.4 46 7.8 65 65 N 14 22 30.05 1018 10 16 0.01 0.25
6:53 pm 18:53 Cloudy 58 14.4 44 6.7 60 60 NNW 12 19 30.05 1018 10 16 0.00 0.00
7:53 pm 19:53 Cloudy 56 13.3 43 6.1 62 62 NW 10 17 30.07 1018 10 16 0.00 0.00
8:53 pm 20:53 Cloudy 55 12.8 45 7.2 69 69 NNW 14 22 30.09 1019 10 16 0.00 0.00
10:53 pm 22:53 Cloudy with Light Rain 52 11.1 44 6.7 75 75 W 7 11 30.14 1021 10 16 0.00 0.00
11:53 pm 23:53 Cloudy with Light Rain 49 9.4 45 7.2 86 86 WNW 13 20 30.16 1021 6 10 0.03 0.76

Powered by AerisWeather